Location: Wangen/Allg�u
(47.6873°N, 9.8307°E)
Time: 13:26:12
(UTC+01:00)

ISS - Pass Details

Date: 04 December 2021
Orbit: 413 x 422 km, 51.6° (Epoch: 27 January)

Event Time Altitude Azimuth Distance (km) Brightness Sun altitude
Rises 17:45:07 0° 293° (WNW) 2,390 0.9 -12.2°
Reaches altitude 10° 17:47:14 10° 295° (WNW) 1,520 -0.2 -12.5°
Maximum altitude 17:50:38 76° 21° (NNE) 442 -3.8 -13.0°
Enters shadow 17:52:53 20° 106° (ESE) 1,051 -2.2 -13.4°
